www.pogodaiklimat.ru

Погода и климат >> Архив погоды >> Мексика >> Mexico City


АРХИВ ПОГОДЫ в Mexico City

Время (UTC), дата Ветер
(напр.,м/с)
 
Видим.   Явления Облачность Т
(С)
Тd
(С)
f
(%)
Тe
(С)
Тes
(С)
Комфортность P
(гПа)
Po
(гПа)
Тmin
(С)
Tmax
(С)
R
(мм)
R24
(мм)
S
(см)
09 18.09 штиль 0 5000 м дым 8/0 2000 м
[As trans]
+15.1 +13.3 89 +15 +15 по сезону 1011.8 775.8
12 18.09 СЗ 3 3000 м дымка {метель} 10/5 600 м
[St As trans]
+13.7 +12.6 93 +12 +12 по сезону 1012.9 776.1 +13.4 +23.4
15 18.09 З 2 3000 м мгла 10/9 750 м
[Cu Sc As trans]
+15.6 +12.9 84 +15 +16 по сезону 1014.9 777.5
18 18.09 З 2 3000 м мгла 6/6 750 м
[Cu Sc]
+21.0 +13.6 63 +24 +32 комфорт 1012.8 776.6 +13.4 +22.0
21 18.09 СЗ 2 3000 м дым 10/10 750 м
[Cu med, cong]
+22.2 +14.7 62 +26 +26 душно 1007.6 773.9
00 19.09 СЗ 2 6000 м дым 10/8 600 м
[Cb cap As op]
+16.4 +12.1 76 +17 +17 прохладно 1007.7 774.8 +13.4 +23.8
03 19.09 З 2 6000 м дым 8/3 750 м
[Sc diur, vesp As op]
+15.8 +11.8 77 +16 +16 по сезону 1009.1 776.1
06 19.09 СЗ 1 8000 м дым 5/0
[As op Cs]
+15.2 +12.8 86 +16 +16 тепло 1010.7 776.6 +23.8
09 19.09 штиль 0 3000 м дым 4/0
[Cs]
+14.6 +12.8 89 +14 +14 по сезону 1011.2 775.7
12 19.09 С 2 2000 м мгла {туман} 10/8 750 м
[St As op]
+14.2 +12.7 91 +14 +14 по сезону 1012.5 775.9 +13.5
15 19.09 ЮЗ 2 3000 м мгла {туман} 10/10 750 м
[St]
+16.6 +12.2 75 +17 +17 по сезону 1014.3 777.2
18 19.09 СЗ 1 3000 м мгла {метель} 1/1 750 м
[Cu Sc]
+22.3 +14.0 59 +25 +46 комфорт 1012.1 776.3 +13.2 +22.4
21 19.09 СЗ 2 6000 м дым 10/10 750 м
[Cu Sc]
+23.8 +13.9 54 +26 +26 жарко 1006.5 773.5
00 20.09 СЗ 4 6000 м дым 10/6 600 м
[Cu Sc As op]
+22.6 +13.2 55 +26 +26 жарко 1003.9 773.0 +13.2 +26.0
09 20.09 З 2 8000 м дым 10/5 750 м
[Sc As trans]
+15.1 +13.9 93 +15 +15 по сезону 1009.3 775.5
12 20.09 штиль 0 7000 м дым 8/4 840 м
[Cu hum As trans]
+15.0 +12.9 87 +15 +15 тепло 1011.9 776.1 +14.5
15 20.09 СЗ 2 3000 м мгла 6/6 750 м
[Cu hum]
+18.0 +14.2 78 +19 +21 тепло 1013.3 777.1
18 20.09 Ю 2 3000 м мгла 5/5 840 м
[Cu hum]
+23.4 +15.4 61 +28 +37 душно 1010.7 776.0 +14.5 +24.0
21 20.09 С 1 6000 м дым 8/8 750 м
[Cu Sc]
+25.2 +14.1 50 +28 +31 жарко 1005.4 773.4
03 21.09 СЗ 4 8000 м дым 8/4 750 м
[Sc diur, vesp As op]
+19.6 +12.7 64 +21 +21 комфорт 1005.5 775.7
06 21.09 СЗ 4 12 км {дождь} 6/0
[Ac und]
+15.8 +12.1 79 +15 +15 по сезону 1007.8 776.8 2
09 21.09 З 1 12 км 4/0
[Ac cuf]
+14.4 +12.3 87 +15 +15 по сезону 1009.0 776.0
12 21.09 СВ 1 5000 м дым 3/0
[Cs]
+14.0 +12.5 91 +14 +14 по сезону 1011.5 776.1 +13.5 +26.5
15 21.09 С 1 3000 м мгла 6/5 750 м
[Cu Sc Ci fib]
+16.8 +12.9 78 +18 +21 тепло 1012.9 776.3
18 21.09 Ю 2 3000 м мгла 5/3 750 м
[Cu hum As trans]
+23.2 +15.2 61 +27 +38 душно 1010.7 775.5 +13.5 +24.0
03 22.09 СЗ 3 10 км дым 8/3 800 м
[Cu med, cong As op]
+18.4 +14.1 76 +19 +19 тепло 1005.7 776.1
06 22.09 СЗ 3 10 км дым 10/5 840 м
[Cu hum As trans]
+17.0 +15.0 88 +17 +17 тепло 1007.5 776.8 +27.5
09 22.09 СЗ 2 10 км дым 10/5 600 м
[Frnb As op]
+16.5 +14.9 90 +17 +17 тепло 1008.1 775.7
12 22.09 СЗ 1 5000 м дым 10/6 840 м
[Cu hum As trans]
+15.3 +13.8 91 +16 +16 тепло 1010.8 776.1 +14.7 +27.5
15 22.09 штиль 0 2000 м мгла {ливн. осадки} 8/8 840 м
[Cu med, cong]
+18.2 +14.5 79 +18 +20 тепло 1012.0 776.6
18 22.09 З 2 2000 м мгла 8/5 840 м
[Cu med, cong Ci fib]
+22.3 +15.3 65 +26 +34 жарко 1010.1 775.7 +14.5 +23.0
21 22.09 Ю 5 6000 м дым 9/9 750 м
[Cu Sc]
+26.0 +15.2 51 +29 +29 душно 1004.3 890.3
00 23.09 СЗ 2 12 км дым {дождь} 9/6 600 м
[Cu Sc As op]
+16.4 +13.7 84 +17 +17 прохладно 1004.3 773.1 11
03 23.09 С 2 8000 м дым 8/4 750 м
[Sc diur, vesp As op]
+15.2 +14.6 96 1008.2 77.9 0.9
06 23.09 С 1 12 км мгла 9/4 600 м
[Sc diur, vesp As op]
+15.0 +13.8 93 +15 +15 по сезону 1010.5 776.7 0.0
09 23.09 З 1 2000 м дым {туман} 8/4 750 м
[Sc Ac cuf]
+14.6 +13.4 93 +15 +15 по сезону 1011.2 892.3
12 23.09 С 2 2000 м мгла {туман} 10/6 750 м
[Sc As op]
+14.4 +13.2 92 +14 +14 по сезону 1011.3 775.0 +14.0 +26.7
15 23.09 С 3 3000 м мгла 9/8 840 м
[Cu med, cong As trans]
+16.2 +13.5 84 +16 +17 по сезону 1013.0 776.2
18 23.09 З 2 4000 м мгла 9/8 840 м
[Cu hum Ci fib]
+21.6 +14.0 62 +24 +28 комфорт 1012.4 776.6 +14.0 +22.5
12 24.09 СЗ 2 6000 м дым ясно +12.6 +11.3 92 +12 +12 по сезону 1012.4 775.2 +12.1 +26.5
15 24.09 СЗ 2 2000 м мгла {туман} 10/8 750 м
[Cu Sc As op]
+15.0 +12.4 84 +15 +15 по сезону 1014.3 776.4
18 24.09 В 2 2000 м дым {туман} 5/5 750 м
[Cu Sc]
+20.9 +13.2 61 +24 +33 комфорт 1012.2 775.5 +11.9 +21.0
21 24.09 СВ 3 3000 м дым 8/8 800 м
[Cu med, cong]
+24.4 +14.1 53 +27 +29 жарко 1006.8 773.0
00 25.09 СЗ 2 10 км дым 9/9 600 м
[Cu Sc]
+22.4 +13.6 57 +25 +25 комфорт 1003.1 772.0 +11.9 +26.1
03 25.09 СЗ 2 6000 м слабая морось 9/4 750 м
[Sc diur, vesp As op]
+17.7 +14.0 79 +18 +18 тепло 1006.5 775.4 0.0
06 25.09 З 3 2000 м {туман} 9/5 600 м
[Cu Sc As op]
+14.4 +13.5 94 +13 +13 по сезону 1007.9 776.0 8

 

Местоположение метеостанции Mexico City (Мексика): широта 19.40 долгота -99.18 высота над уровнем моря 2303 м.

В архиве по умолчанию представлена погода в Mexico City за последнюю неделю. Архивные данные за месяц целиком и за предыдущие месяцы, начиная с января 2011 года, Вы можете получить, выбрав интересующий диапазон дат из раскрывающегося списка и нажав кнопку "Ввод!".


*Определитесь, кто Вы:
робот инопланетянин человек

Внимание! Время в таблицах - всемирное. Для получения местного времени необходимо прибавить поправку, которая в Mexico City равна -6 ч.

Смотрите также архив погоды в соседних городах и на ближайших метеорологических станциях:

Погода в Institute of Geography (Мексика) (9 км)
Погода в Toluca (Мексика) (54 км)
Погода в Cuernavaca (Мексика) (58 км)
Погода в Zacatepec (Мексика) (78 км)
Погода в Pachuca (Мексика) (93 км)
Погода в Tlaxcala (Мексика) (98 км)
Погода в Tlaxcala Airport (Мексика) (99 км)
Погода в Tulancingo (Мексика) (114 км)
Погода в Puebla (Мексика) (114 км)
Погода в Queretaro (Мексика) (183 км)

Пояснения к столбцам:

Ветер - указаны скорость ветра в м/с - средняя за 10 мин, порывы в срок и между сроками (в фигурных скобках) и направление, откуда дует ветер: С - северный, СВ - северо-восточный, В - восточный, ЮВ - юго-восточный, Ю - южный, ЮЗ - юго-западный, З - западный, СЗ - северо-западный.
Видимость - горизонтальная дальность видимости в метрах или километрах. При видимости от 1 до 10 км при отсутствии осадков обычно наблюдается дымка, при ухудшении видимости до 1 км и менее - туман. В сухую погоду видимость может ухудшаться дымом, пылью или мглою.
Явления - указаны атмосферные явления, наблюдавшиеся в срок или в последний час перед сроком; фигурными скобками обозначены явления, наблюдавшиеся между сроками (за 1-3 часа до срока); квадратными скобками обозначены град или гололедные отложения с указанием их диаметра в мм.
Облачность - указаны через наклонную черту общая и нижняя облачность в баллах и высота нижней границы облаков в метрах; квадратными скобками обозначены формы облаков: Ci - перистые, Cs - перисто-слоистые, Cc - перисто-кучевые, Ac - высококучевые, As - высокослоистые, Sc - слоисто-кучевые, Ns - слоисто-дождевые, Cu - кучевые, Cb - кучево-дождевые. Подробнее классификацию облаков см. в Атласе облаков (PDF).
T - Температура воздуха - температура, измеренная на высоте 2 м над землей.
Td - Температура точки росы - температура, при понижении до которой содержащийся в воздухе водяной пар достигнет насыщения.
f - Относительная влажность воздуха - влажноcть воздуха, измеренная на высоте 2 м над землей.
Te - Эффективная температура - температура, которую ощущает одетый по сезону человек в тени. Характеристика душности погоды. При расчете учитывается влияние влажности воздуха и скорости ветра на теплоощущения человека.
Tes - Эффективная температура на солнце - температура, которую ощущает человек, с поправкой на солнечный нагрев. Характеристика знойности погоды. Зависит от высоты солнца над горизонтом, облачности и скорости ветра. Ночью, в пасмурную погоду, а также при ветре 12 м/с и более поправка равна нулю.
P - Атмосферное давление - приведенное к уровню моря атмосферное давление.
Po - Атмосферное давление - измеренное на уровне метеостанции атмосферное давление.
Tmin - Минимальная температура - минимум температуры воздуха на высоте 2 м над землей.
Tmax - Максимальная температура - максимум температуры воздуха на высоте 2 м над землей.
R - Количество осадков - Количество выпавших осадков за период времени, мм. При наведении курсора мыши на число - период времени, за который выпало указанное количество осадков.
R24 - Количество осадков - Количество выпавших осадков за 24 часа, мм.
S - Снежный покров - Высота снежного покрова, см. При наведении курсора мыши на число - состояние снежного покрова и степень покрытия местности в баллах.